Flag Weather past 2 weeks in Meppen, Lower Saxony, Germany

Now
51 °F

Cool.


Feels Like: 51 °F
Forecast: 52 / 63 °F
Wind: 2 mph from Southwest

Location: Meppen

Current Time: Oct 31, 2014 at 8:18:50 AM

Latest Report: Oct 31, 2014 at 6:00 AM


Visibility: 0 mi

Pressure: 30.18 "Hg

Humidity: 96%

Dew point: 49 °F

Location of MeppenLocation

Historic Weather in Meppen — Graph

°F

Meppen temperature yesterday

Maximum temperature yesterday: 55 °F (at 6:00 PM)
Minimum temperature yesterday: 49 °F (at 2:00 AM)
Average temperature yesterday: 52 °F

Past Weeks' High & Low Weather Summary

 TemperatureHumidityPressure
High72 °F (Oct 19, 1:00 PM)96% (Oct 17, 8:00 AM)30.25 "Hg (Oct 17, 8:00 AM)
Low43 °F (Oct 28, 8:00 AM)62% (Oct 19, 3:00 PM)29.38 "Hg (Oct 21, 4:00 PM)
Average54 °F85%30.01 "Hg
* Reported Oct 16 7:00 AM — Oct 31 6:00 AM, Meppen, Weather by CustomWeather, © 2014

Note: Actual official high and low records may vary slightly from our data, if they occured in-between our weather recording intervals... More about our weather records

Advertising

Meppen weather history for previous 24 hours

 ConditionsComfort  
Time TempWeatherWind HumidityBarometerVisibility
6:00 AM
Oct 31
51 °FCool.2 mph96%30.18 "Hg0 mi
5:00 AM52 °FCool.2 mph95%30.19 "Hg1 mi
3:00 AM54 °FCool.2 mph95%30.18 "Hg3 mi
2:00 AM54 °FCool.2 mph95%30.19 "Hg1 mi
1:00 AM54 °FCool.2 mph94%30.19 "Hg1 mi
12:00 AM55 °FCool.2 mph94%30.20 "Hg4 mi
11:00 PM
Oct 30
54 °FCool.2 mph94%30.19 "Hg3 mi
9:00 PM54 °FCool.2 mph93%30.20 "Hg2 mi
8:00 PMN/APassing clouds.5 mphN/AN/A10 mi
7:00 PM55 °FPassing clouds.97 mph92%30.21 "Hg1 mi
6:00 PM55 °FCool.2 mph92%30.21 "Hg2 mi
5:00 PM54 °FCool.2 mph91%30.20 "Hg3 mi
3:00 PM54 °FFog.2 mph90%30.21 "Hg4 mi
2:00 PM54 °FLow clouds.2 mph90%30.22 "Hg5 mi
1:00 PM53 °FLow clouds.2 mph91%30.22 "Hg5 mi
12:00 PM52 °FFog.2 mph92%30.23 "Hg4 mi
11:00 AM51 °FFog.N/A94%30.23 "Hg4 mi
9:00 AM50 °FFog.2 mph94%30.21 "Hg2 mi
8:00 AM49 °FDrizzle. Low clouds.N/A94%30.22 "Hg1 mi
Weather by CustomWeather, © 2014

See weather overviewHow to use our weather pages